Location: Mainz-Finthen
(49.9906°N, 8.1713°E)
Time: 21:21:34
(UTC+00:00)

BlueWalker 3 - Pass Details

Date: 07 December 2022
Orbit: 499 x 517 km, 53.2° (Epoch: 04 February)

Event Time Altitude Azimuth Distance (km) Brightness Sun altitude
Rises 17:46:09 0° 293° (WNW) 2,629 6.5 -21.4°
Reaches altitude 10° 17:48:23 10° 290° (WNW) 1,736 5.5 -21.8°
Maximum altitude 17:52:16 65° 209° (SSW) 563 2.2 -22.4°
Enters shadow 17:52:33 62° 181° (S) 576 2.1 -22.5°
